This is the latest recevied weather packets stored in our database for station/object OK2JF-6. If no packets are shown the sender has not sent any weather packets the latest 10 day(s).
| Time | Temp. | Humidity | Pressure | Rain* | Wind** | Luminosity | Snow |
|---|---|---|---|---|---|---|---|
| 1777055463 | 10° C | 65% | 1087 hPa | 0 mm | - | 0 W/m² | - |
| 1777055103 | 10.56° C | 63% | 1087.2 hPa | 0 mm | - | 0 W/m² | - |
| 1777054743 | 10.56° C | 63% | 1087 hPa | 0 mm | - | 0 W/m² | - |
| 1777054517 | 10.56° C | 62% | 1086.9 hPa | 0 mm | - | 0 W/m² | - |
| 1777054503 | 10.56° C | 62% | 1086.9 hPa | 0 mm | - | 0 W/m² | - |
| 1777054399 | 11.11° C | 62% | 1087.1 hPa | 0 mm | - | 0 W/m² | - |
| 1777054083 | 11.11° C | 61% | 1086.8 hPa | 0 mm | - | 1 W/m² | - |
| 1777053903 | 11.11° C | 59% | 1086.9 hPa | 0 mm | - | 1 W/m² | - |
| 1777053618 | 11.67° C | 59% | 1087 hPa | 0 mm | - | 2 W/m² | - |
| 1777053243 | 11.67° C | 57% | 1086.9 hPa | 0 mm | - | 4 W/m² | - |
| 1777053063 | 11.67° C | 56% | 1086.6 hPa | 0 mm | - | 4 W/m² | - |
| 1777052703 | 12.22° C | 56% | 1086.5 hPa | 0 mm | - | 6 W/m² | - |
| 1777051863 | 12.78° C | 54% | 1086.6 hPa | 0 mm | - | 12 W/m² | - |
| 1777051504 | 12.78° C | 53% | 1086.5 hPa | 0 mm | - | 15 W/m² | - |
| 1777051023 | 13.33° C | 53% | 1086.9 hPa | 0 mm | - | 21 W/m² | - |
| 1777050903 | 13.33° C | 53% | 1087 hPa | 0 mm | - | 21 W/m² | - |
| 1777050677 | 13.33° C | 54% | 1086.8 hPa | 0 mm | - | 23 W/m² | - |
| 1777050303 | 13.33° C | 53% | 1086.9 hPa | 0 mm | - | 27 W/m² | - |
| 1777050063 | 13.89° C | 52% | 1086.8 hPa | 0 mm | - | 31 W/m² | - |
| 1777049943 | 13.89° C | 52% | 1087 hPa | 0 mm | - | 33 W/m² | - |
| 1777049764 | 13.89° C | 52% | 1086.8 hPa | 0 mm | - | 32 W/m² | - |
| 1777049643 | 13.89° C | 52% | 1087 hPa | 0 mm | - | 33 W/m² | - |
| 1777049584 | 13.89° C | 51% | 1086.6 hPa | 0 mm | - | 34 W/m² | - |
| 1777049464 | 13.89° C | 51% | 1086.5 hPa | 0 mm | - | 40 W/m² | - |
| 1777049043 | 14.44° C | 49% | 1086.8 hPa | 0 mm | - | 46 W/m² | - |
* Rain latest hour (hover to see other rain measurements)
** Current wind speed in m/s (hover to see current wind gust speed)